TimeCST,TemperatureF,Dew PointF,Humidity,Sea Level PressureIn,VisibilityMPH,Wind Direction,Wind SpeedMPH,Gust SpeedMPH,PrecipitationIn,Events,Conditions,WindDirDegrees,DateUTC
12:15 AM,44.6,33.8,66,29.93,10.0,ESE,3.5,-,N/A,,Clear,120,2012-11-26 06:15:00
12:35 AM,42.8,33.8,70,29.93,10.0,ESE,3.5,-,N/A,,Clear,110,2012-11-26 06:35:00
1:15 AM,44.6,35.6,71,29.92,10.0,ESE,4.6,-,N/A,,Scattered Clouds,110,2012-11-26 07:15:00
1:35 AM,46.4,35.6,66,29.92,10.0,ESE,4.6,-,N/A,,Mostly Cloudy,120,2012-11-26 07:35:00
1:55 AM,46.4,37.4,71,29.92,10.0,ESE,3.5,-,N/A,,Mostly Cloudy,110,2012-11-26 07:55:00
2:16 AM,46.4,35.6,66,29.92,10.0,ESE,4.6,-,N/A,,Scattered Clouds,110,2012-11-26 08:16:00
2:35 AM,44.6,35.6,71,29.92,10.0,ESE,3.5,-,N/A,,Clear,110,2012-11-26 08:35:00
2:55 AM,46.4,37.4,71,29.92,10.0,East,3.5,-,N/A,,Mostly Cloudy,90,2012-11-26 08:55:00
3:15 AM,46.4,35.6,66,29.92,10.0,East,3.5,-,N/A,,Partly Cloudy,90,2012-11-26 09:15:00
3:35 AM,44.6,37.4,76,29.92,10.0,East,4.6,-,N/A,,Clear,100,2012-11-26 09:35:00
3:55 AM,46.4,37.4,71,29.91,10.0,East,4.6,-,N/A,,Clear,100,2012-11-26 09:55:00
4:15 AM,46.4,37.4,71,29.91,10.0,East,4.6,-,N/A,,Clear,90,2012-11-26 10:15:00
4:55 AM,46.4,39.2,76,29.91,10.0,East,5.8,-,N/A,,Mostly Cloudy,100,2012-11-26 10:55:00
5:15 AM,48.2,39.2,71,29.92,10.0,East,5.8,-,N/A,,Overcast,100,2012-11-26 11:15:00
5:36 AM,48.2,41.0,76,29.93,10.0,East,5.8,-,N/A,,Overcast,100,2012-11-26 11:36:00
5:55 AM,48.2,39.2,71,29.93,10.0,East,5.8,-,N/A,,Overcast,90,2012-11-26 11:55:00
6:15 AM,50.0,41.0,71,29.94,10.0,East,4.6,-,N/A,,Overcast,90,2012-11-26 12:15:00
6:55 AM,50.0,41.0,71,29.95,10.0,East,3.5,-,N/A,,Overcast,90,2012-11-26 12:55:00
7:15 AM,50.0,41.0,71,29.95,10.0,East,4.6,-,N/A,,Overcast,90,2012-11-26 13:15:00
7:55 AM,51.8,41.0,67,29.96,10.0,East,4.6,-,N/A,,Overcast,90,2012-11-26 13:55:00
8:15 AM,51.8,42.8,71,29.97,10.0,East,4.6,-,N/A,,Overcast,90,2012-11-26 14:15:00
8:35 AM,51.8,42.8,71,29.97,10.0,East,4.6,-,N/A,,Overcast,100,2012-11-26 14:35:00
8:55 AM,53.6,42.8,67,29.98,10.0,East,4.6,-,N/A,,Overcast,90,2012-11-26 14:55:00
9:15 AM,53.6,42.8,67,29.98,10.0,ENE,3.5,-,N/A,,Overcast,70,2012-11-26 15:15:00
9:35 AM,53.6,42.8,67,29.99,10.0,East,5.8,-,N/A,,Overcast,90,2012-11-26 15:35:00
10:15 AM,53.6,42.8,67,30.01,10.0,NE,3.5,-,N/A,,Overcast,40,2012-11-26 16:15:00
10:35 AM,53.6,42.8,67,30.02,10.0,NNE,5.8,-,N/A,,Overcast,20,2012-11-26 16:35:00
10:55 AM,51.8,42.8,71,30.02,10.0,NNE,8.1,-,N/A,,Overcast,30,2012-11-26 16:55:00
11:16 AM,50.0,42.8,76,30.02,10.0,NNE,10.4,-,N/A,,Overcast,30,2012-11-26 17:16:00
11:35 AM,48.2,42.8,82,30.02,8.0,NE,9.2,-,N/A,,Overcast,40,2012-11-26 17:35:00
11:55 AM,48.2,41.0,76,30.02,9.0,NNE,6.9,-,N/A,,Overcast,30,2012-11-26 17:55:00
12:35 PM,46.4,41.0,81,30.02,7.0,NNE,13.8,-,N/A,,Overcast,20,2012-11-26 18:35:00
1:15 PM,44.6,39.2,81,30.03,4.0,NNE,15.0,-,N/A,,Overcast,30,2012-11-26 19:15:00
1:35 PM,44.6,39.2,81,30.03,3.0,North,13.8,-,N/A,,Overcast,10,2012-11-26 19:35:00
1:55 PM,42.8,39.2,87,30.04,2.5,NNE,13.8,18.4,N/A,,Overcast,20,2012-11-26 19:55:00
2:15 PM,41.0,37.4,87,30.05,3.0,NNE,13.8,-,N/A,,Overcast,20,2012-11-26 20:15:00
2:35 PM,41.0,37.4,87,30.06,2.5,NNE,13.8,21.9,N/A,,Overcast,20,2012-11-26 20:35:00
2:55 PM,39.2,35.6,87,30.07,3.0,North,13.8,20.7,N/A,,Overcast,10,2012-11-26 20:55:00
3:15 PM,41.0,35.6,81,30.09,10.0,NNE,15.0,20.7,N/A,,Overcast,20,2012-11-26 21:15:00
3:35 PM,41.0,35.6,81,30.10,10.0,NNE,12.7,23.0,N/A,,Overcast,20,2012-11-26 21:35:00
3:55 PM,41.0,33.8,76,30.12,10.0,NNE,13.8,21.9,N/A,,Overcast,30,2012-11-26 21:55:00
4:35 PM,42.8,32.0,66,30.16,10.0,NE,15.0,23.0,N/A,,Overcast,40,2012-11-26 22:35:00
4:55 PM,42.8,30.2,61,30.17,10.0,NE,13.8,26.5,N/A,,Overcast,50,2012-11-26 22:55:00
5:15 PM,42.8,30.2,61,30.18,10.0,NE,16.1,26.5,N/A,,Overcast,40,2012-11-26 23:15:00
5:35 PM,41.0,32.0,70,30.20,10.0,NE,15.0,20.7,N/A,,Overcast,40,2012-11-26 23:35:00
5:55 PM,42.8,28.4,57,30.21,10.0,NE,15.0,25.3,N/A,,Overcast,40,2012-11-26 23:55:00
6:15 PM,42.8,26.6,53,30.22,10.0,NE,17.3,26.5,N/A,,Overcast,40,2012-11-27 00:15:00
7:15 PM,42.8,24.8,49,30.24,10.0,NE,11.5,21.9,N/A,,Overcast,40,2012-11-27 01:15:00
7:55 PM,41.0,24.8,53,30.27,10.0,NE,15.0,20.7,N/A,,Partly Cloudy,40,2012-11-27 01:55:00
8:15 PM,39.2,26.6,61,30.27,10.0,NE,15.0,19.6,N/A,,Clear,40,2012-11-27 02:15:00
8:35 PM,39.2,24.8,56,30.28,10.0,NE,11.5,18.4,N/A,,Clear,40,2012-11-27 02:35:00
8:56 PM,39.2,24.8,56,30.29,10.0,NNE,10.4,16.1,N/A,,Clear,30,2012-11-27 02:56:00
9:15 PM,39.2,24.8,56,30.29,10.0,NE,12.7,-,N/A,,Clear,40,2012-11-27 03:15:00
9:35 PM,37.4,24.8,60,30.30,10.0,NNE,9.2,16.1,N/A,,Clear,30,2012-11-27 03:35:00
9:56 PM,37.4,24.8,60,30.31,10.0,NNE,12.7,-,N/A,,Clear,30,2012-11-27 03:56:00
10:15 PM,37.4,24.8,60,30.31,10.0,NNE,9.2,-,N/A,,Clear,30,2012-11-27 04:15:00
10:35 PM,37.4,24.8,60,30.32,10.0,NNE,10.4,-,N/A,,Clear,20,2012-11-27 04:35:00
11:15 PM,35.6,24.8,65,30.33,10.0,North,9.2,-,N/A,,Clear,10,2012-11-27 05:15:00
11:35 PM,35.6,24.8,65,30.33,10.0,North,13.8,-,N/A,,Clear,10,2012-11-27 05:35:00
11:55 PM,33.8,24.8,70,30.33,10.0,NNE,11.5,-,N/A,,Clear,30,2012-11-27 05:55:00